Location: *
(45.1333°S, 169.6333°W)
Time: 20:28:32
(UTC+00:00)

ADEOS - Pass Details

Date: 26 May 2022
Orbit: 792 x 794 km, 98.9° (Epoch: 06 July)

Event Time Altitude Azimuth Distance (km) Brightness Sun altitude
Exits shadow 05:48:46 - 170° (S) 3,290 6.6 -20.5°
Reaches altitude 10° 05:51:01 10° 173° (S) 2,401 5.9 -20.9°
Maximum altitude 05:56:13 59° 250° (WSW) 930 4.1 -21.8°
Drops below altitude 10° 06:01:22 10° 329° (NNW) 2,372 6.5 -22.7°
Sets 06:03:42 0° 332° (NNW) 3,294 7.3 -23.1°
